Plovdiv, Bulgaria

10:57 AM EET on December 11, 2019 (GMT +0200)
Plovdiv

Weather History for LBPD - October, 2019

Change the Weather History Date:

Thursday, October 10, 2019

  Actual Average (WUND) Record (WUND)
Temperature  
Mean Temperature 62 °F -  
Max Temperature 80 °F - - (-1)
Min Temperature 44 °F - - (-1)
Degree Days  
Heating Degree Days 3    
Growing Degree Days 12 (Base 50)    
Moisture  
Dew Point 48 °F    
Average Humidity 67    
Maximum Humidity 93    
Minimum Humidity 34    
Precipitation  
Precipitation 0.00 in - - ()
Sea Level Pressure  
Sea Level Pressure 30.04 in    
Wind  
Wind Speed 4 mph ()    
Max Wind Speed 10 mph    
Max Gust Speed -    
Visibility 6.2 miles    
Events      
Averages and records for this station are not official NWS values.
T = Trace of Precipitation, MM = Missing Value Source: Averaged Metar Reports

Daily Weather History Graph

Daily Weather History Graph

Search for Another Location

Airport or City:

Astronomy

Oct. 10, 2019 Rise Set
Actual Time 7:27 AM EEST 6:48 PM EEST
Civil Twilight 6:59 AM EEST 7:16 PM EEST
Nautical Twilight 6:26 AM EEST 7:48 PM EEST
Astronomical Twilight 5:54 AM EEST 8:20 PM EEST
Moon 5:45 PM EEST (10/10) 3:47 AM EEST (10/10)
Length of Visible Light 12h 16m
Length of Day
11h 20m
Waxing Gibbous, 89% of the Moon is Illuminated
Oct 10
Waxing Gibbous
Oct 14
Full
Oct 21
Last Quarter
Oct 28
New
Nov 4
First Quarter

Hourly Weather History & Observations

Time (EEST) Temp. Windchill Dew Point Humidity Pressure Visibility Wind Dir Wind Speed Gust Speed Precip Events Conditions
12:00 AM 50.0 °F - 44.6 °F 82% 30.09 in 6.2 mi NW 5.8 mph - N/A   Unknown
12:30 AM 48.2 °F - 44.6 °F 87% 30.09 in 6.2 mi WSW 4.6 mph - N/A   Unknown
1:00 AM 50.0 °F - 44.6 °F 82% 30.09 in 6.2 mi West 4.6 mph - N/A   Unknown
1:30 AM 46.4 °F 43.5 °F 44.6 °F 93% 30.09 in 6.2 mi WSW 5.8 mph - N/A   Unknown
2:00 AM 46.4 °F - 44.6 °F 93% 30.09 in 6.2 mi Variable 2.3 mph - N/A   Unknown
2:30 AM 46.4 °F - 42.8 °F 87% 30.09 in 6.2 mi Variable 2.3 mph - N/A   Unknown
3:00 AM 46.4 °F 44.3 °F 42.8 °F 87% 30.09 in 6.2 mi South 4.6 mph - N/A   Unknown
3:30 AM 46.4 °F - 44.6 °F 93% 30.06 in 6.2 mi Variable 2.3 mph - N/A   Unknown
4:00 AM 46.4 °F - 44.6 °F 93% 30.06 in 6.2 mi Calm Calm - N/A   Unknown
4:30 AM 46.4 °F 42.9 °F 42.8 °F 87% 30.06 in 6.2 mi NW 6.9 mph - N/A   Unknown
5:00 AM 44.6 °F 41.4 °F 41.0 °F 87% 30.06 in 6.2 mi West 5.8 mph - N/A   Unknown
5:30 AM 44.6 °F 40.7 °F 42.8 °F 93% 30.06 in 6.2 mi West 6.9 mph - N/A   Unknown
6:00 AM 44.6 °F 41.4 °F 42.8 °F 93% 30.06 in 6.2 mi SSW 5.8 mph - N/A   Unknown
6:30 AM 48.2 °F - 44.6 °F 87% 30.06 in 6.2 mi Calm Calm - N/A   Unknown
7:00 AM 44.6 °F - 41.0 °F 87% 30.06 in 6.2 mi Calm Calm - N/A   Unknown
7:30 AM 44.6 °F 43.1 °F 42.8 °F 93% 30.06 in 6.2 mi NNW 3.5 mph - N/A   Unknown
8:00 AM 44.6 °F - 42.8 °F 93% 30.06 in 6.2 mi Variable 2.3 mph - N/A   Unknown
8:30 AM 46.4 °F 44.3 °F 44.6 °F 93% 30.06 in 6.2 mi SW 4.6 mph - N/A   Unknown
9:00 AM 50.0 °F - 46.4 °F 87% 30.06 in 6.2 mi Variable 2.3 mph - N/A   Unknown
9:30 AM 55.4 °F - 48.2 °F 77% 30.09 in 6.2 mi Calm Calm - N/A   Unknown
10:00 AM 57.2 °F - 48.2 °F 72% 30.09 in 6.2 mi NW 3.5 mph - N/A   Unknown
10:30 AM 60.8 °F - 48.2 °F 63% 30.06 in 6.2 mi NNE 4.6 mph - N/A   Unknown
11:00 AM 64.4 °F - 50.0 °F 59% 30.06 in 6.2 mi Variable 2.3 mph - N/A   Unknown
11:30 AM 66.2 °F - 50.0 °F 56% 30.06 in 6.2 mi Variable 3.5 mph - N/A   Unknown
12:00 PM 68.0 °F - 50.0 °F 52% 30.06 in 6.2 mi Variable 2.3 mph - N/A   Unknown
12:30 PM 71.6 °F - 50.0 °F 46% 30.06 in 6.2 mi Variable 3.5 mph - N/A   Unknown
1:00 PM 71.6 °F - 50.0 °F 46% 30.06 in 6.2 mi Variable 3.5 mph - N/A   Unknown
1:30 PM 73.4 °F - 50.0 °F 44% 30.04 in 6.2 mi SSE 3.5 mph - N/A   Unknown
2:00 PM 77.0 °F - 50.0 °F 39% 30.04 in 6.2 mi Variable 2.3 mph - N/A   Unknown
2:30 PM 78.8 °F - 50.0 °F 36% 30.01 in 6.2 mi Calm Calm - N/A   Unknown
3:00 PM 78.8 °F - 50.0 °F 36% 30.01 in 6.2 mi Variable 3.5 mph - N/A   Unknown
3:30 PM 80.6 °F - 50.0 °F 34% 29.98 in 6.2 mi Calm Calm - N/A   Unknown
4:00 PM 80.6 °F - 50.0 °F 34% 29.98 in 6.2 mi Variable 3.5 mph - N/A   Unknown
4:30 PM 80.6 °F - 50.0 °F 34% 29.98 in 6.2 mi ESE 5.8 mph - N/A   Unknown
5:00 PM 80.6 °F - 50.0 °F 34% 29.98 in 6.2 mi East 6.9 mph - N/A   Unknown
5:30 PM 80.6 °F - 50.0 °F 34% 29.98 in 6.2 mi SE 10.4 mph - N/A   Unknown
6:00 PM 78.8 °F - 50.0 °F 36% 29.98 in 6.2 mi SE 8.1 mph - N/A   Scattered Clouds
6:30 PM 75.2 °F - 51.8 °F 44% 29.98 in 6.2 mi ESE 6.9 mph - N/A   Unknown
7:00 PM 71.6 °F - 51.8 °F 50% 29.98 in 6.2 mi SE 6.9 mph - N/A   Unknown
7:30 PM 69.8 °F - 51.8 °F 53% 29.98 in 6.2 mi ESE 5.8 mph - N/A   Unknown
8:00 PM 68.0 °F - 51.8 °F 56% 29.98 in 6.2 mi SSE 6.9 mph - N/A   Unknown
8:30 PM 68.0 °F - 51.8 °F 56% 29.98 in 6.2 mi West 4.6 mph - N/A   Unknown
9:00 PM 66.2 °F - 51.8 °F 60% 29.98 in 6.2 mi Calm Calm - N/A   Unknown
9:30 PM 62.6 °F - 51.8 °F 68% 29.98 in 6.2 mi WNW 5.8 mph - N/A   Unknown
10:00 PM 62.6 °F - 51.8 °F 68% 29.98 in 6.2 mi WNW 3.5 mph - N/A   Unknown
10:30 PM 62.6 °F - 53.6 °F 72% 30.01 in 6.2 mi WSW 4.6 mph - N/A   Unknown
11:00 PM 62.6 °F - 51.8 °F 68% 30.01 in 6.2 mi West 4.6 mph - N/A   Unknown
11:30 PM 62.6 °F - 53.6 °F 72% 30.01 in 6.2 mi SW 4.6 mph - N/A   Unknown